TimeEST,TemperatureF,Dew PointF,Humidity,Sea Level PressureIn,VisibilityMPH,Wind Direction,Wind SpeedMPH,Gust SpeedMPH,PrecipitationIn,Events,Conditions,WindDirDegrees,DateUTC
12:53 AM,39.0,37.0,93,29.78,6.0,Calm,Calm,-,0.00,,Overcast,0,2012-12-29 05:53:00
1:53 AM,39.9,36.0,86,29.78,9.0,West,9.2,-,N/A,,Overcast,270,2012-12-29 06:53:00
2:38 AM,39.2,37.4,93,29.77,5.0,West,10.4,19.6,0.04,Rain,Light Rain,270,2012-12-29 07:38:00
2:53 AM,39.9,37.0,89,29.80,5.0,West,9.2,18.4,0.04,Rain,Light Rain,260,2012-12-29 07:53:00
3:14 AM,39.2,37.4,93,29.78,4.0,Variable,5.8,-,0.00,Rain,Light Rain,0,2012-12-29 08:14:00
3:25 AM,39.2,37.4,93,29.79,4.0,WSW,6.9,-,0.01,Rain,Light Rain,250,2012-12-29 08:25:00
3:53 AM,39.9,37.9,93,29.82,6.0,Variable,5.8,-,0.04,Rain,Light Rain,0,2012-12-29 08:53:00
4:41 AM,41.0,37.4,87,29.78,10.0,Variable,4.6,-,0.01,Rain,Light Rain,0,2012-12-29 09:41:00
4:53 AM,41.0,37.9,89,29.81,10.0,Variable,3.5,-,0.01,Rain,Light Rain,0,2012-12-29 09:53:00
5:45 AM,41.0,37.4,87,29.78,10.0,Calm,Calm,-,N/A,,Overcast,0,2012-12-29 10:45:00
5:53 AM,41.0,37.0,86,29.81,10.0,SW,6.9,-,N/A,,Overcast,220,2012-12-29 10:53:00
6:53 AM,41.0,37.9,89,29.83,7.0,Variable,5.8,-,0.00,Rain,Light Rain,0,2012-12-29 11:53:00
7:15 AM,41.0,37.4,87,29.82,6.0,Variable,6.9,-,0.00,Rain,Light Rain,0,2012-12-29 12:15:00
7:35 AM,41.0,37.4,87,29.82,10.0,WSW,5.8,-,0.00,,Overcast,250,2012-12-29 12:35:00
7:53 AM,41.0,36.0,82,29.87,10.0,WSW,6.9,-,0.00,Rain,Light Rain,250,2012-12-29 12:53:00
8:15 AM,41.0,35.6,81,29.85,10.0,West,5.8,18.4,0.00,,Overcast,260,2012-12-29 13:15:00
8:30 AM,39.2,33.8,81,29.86,10.0,West,8.1,19.6,0.00,,Mostly Cloudy,260,2012-12-29 13:30:00
8:44 AM,39.2,33.8,81,29.86,10.0,Variable,4.6,-,0.00,,Mostly Cloudy,0,2012-12-29 13:44:00
8:53 AM,39.9,34.0,79,29.90,10.0,Variable,5.8,-,0.00,,Mostly Cloudy,0,2012-12-29 13:53:00
9:26 AM,39.2,33.8,81,29.89,10.0,West,9.2,18.4,N/A,,Overcast,260,2012-12-29 14:26:00
9:53 AM,39.0,32.0,76,29.94,10.0,West,8.1,17.3,0.00,,Overcast,280,2012-12-29 14:53:00
10:31 AM,37.4,30.2,75,29.94,10.0,WSW,4.6,-,N/A,,Overcast,240,2012-12-29 15:31:00
10:53 AM,37.0,30.9,79,29.99,10.0,SW,8.1,-,N/A,,Overcast,220,2012-12-29 15:53:00
11:53 AM,37.0,30.0,76,29.99,10.0,WSW,5.8,-,N/A,,Overcast,240,2012-12-29 16:53:00
12:53 PM,37.0,30.0,76,29.99,10.0,Variable,6.9,-,N/A,,Overcast,0,2012-12-29 17:53:00
1:53 PM,36.0,30.0,79,30.00,10.0,Variable,5.8,-,0.00,,Overcast,0,2012-12-29 18:53:00
2:53 PM,36.0,28.9,76,30.02,10.0,Variable,6.9,-,0.00,,Overcast,0,2012-12-29 19:53:00
3:53 PM,35.1,28.9,78,30.05,10.0,West,6.9,-,0.00,,Overcast,260,2012-12-29 20:53:00
4:53 PM,34.0,28.9,82,30.09,4.0,WSW,6.9,-,0.01,Snow,Light Snow,250,2012-12-29 21:53:00
5:53 PM,35.1,28.0,76,30.12,10.0,WSW,3.5,-,0.00,,Overcast,240,2012-12-29 22:53:00
6:53 PM,34.0,27.0,75,30.16,10.0,West,4.6,-,0.00,,Overcast,260,2012-12-29 23:53:00
7:53 PM,34.0,27.0,75,30.19,10.0,Calm,Calm,-,N/A,,Overcast,0,2012-12-30 00:53:00
8:53 PM,34.0,26.1,73,30.21,10.0,WSW,3.5,-,N/A,,Overcast,240,2012-12-30 01:53:00
9:53 PM,34.0,24.1,67,30.24,10.0,Variable,5.8,-,N/A,,Overcast,0,2012-12-30 02:53:00
10:53 PM,33.1,23.0,66,30.27,10.0,Variable,5.8,-,0.00,,Overcast,0,2012-12-30 03:53:00
11:53 PM,33.1,21.0,61,30.30,10.0,WNW,10.4,16.1,N/A,,Overcast,290,2012-12-30 04:53:00